KD2BVA Weather Reports


Display with metric or nautical units.
time (UTC)temp
F
wind
direction
speed
MPH
gust
MPH
rain 1hr
in
rain 24hr
in
rain mn
in
humidity
%
barometer
mb
20260506105608 54 293 0.0 0.0 0.01 0.06 0.04 98 992.8
20260506105047 54 293 0.0 0.0 0.01 0.06 0.04 98 992.9
20260506104607 54 293 0.0 0.0 0.01 0.06 0.04 98 993.0
20260506104046 54 259 0.0 0.0 0.01 0.06 0.04 98 993.0
20260506103557 54 268 0.0 0.0 0.01 0.06 0.04 98 992.8
20260506103043 54 76 0.0 0.0 0.00 0.05 0.03 98 992.5
20260506102532 54 283 0.0 0.0 0.00 0.05 0.03 98 992.9
20260506102043 54 278 0.0 0.0 0.00 0.05 0.03 98 993.0
20260506101524 54 84 0.0 0.0 0.00 0.05 0.03 98 992.8
20260506101033 54 280 0.0 0.0 0.00 0.05 0.03 98 992.7
20260506100546 54 56 0.0 0.0 0.00 0.05 0.03 98 992.6
20260506100025 54 56 0.0 0.0 0.00 0.05 0.03 97 992.6
20260506095531 54 56 0.0 0.0 0.00 0.05 0.03 97 992.4
20260506095033 54 56 0.0 0.0 0.00 0.05 0.03 97 992.4
20260506094523 54 56 0.0 0.0 0.00 0.05 0.03 98 992.4
20260506094035 54 70 0.0 0.0 0.00 0.05 0.03 98 992.5
20260506093534 54 74 0.0 0.0 0.00 0.05 0.03 98 992.5
20260506093022 54 75 0.0 0.0 0.00 0.05 0.03 98 992.6
20260506092533 54 75 0.0 0.0 0.00 0.05 0.03 98 992.6
20260506092032 54 75 0.0 0.0 0.00 0.05 0.03 98 992.5
20260506091521 54 74 0.0 0.0 0.00 0.05 0.03 98 992.6
20260506091022 54 75 0.0 0.0 0.00 0.05 0.03 97 992.7
20260506090534 54 75 0.0 1.0 0.00 0.05 0.03 97 992.8
20260506090022 54 74 0.0 0.0 0.00 0.05 0.03 97 992.8
20260506085524 54 75 0.0 0.0 0.00 0.05 0.03 97 992.7
20260506085033 53 75 0.0 0.0 0.00 0.05 0.03 97 992.7
20260506084524 53 75 0.0 0.0 0.00 0.05 0.03 97 992.9
20260506084023 53 75 0.0 0.0 0.00 0.05 0.03 97 992.9
20260506083533 54 75 0.0 0.0 0.00 0.05 0.03 97 992.9
20260506083041 54 75 0.0 0.0 0.00 0.05 0.03 97 993.0
20260506082522 54 75 0.0 1.0 0.00 0.05 0.03 97 993.0
20260506082046 54 75 0.0 1.0 0.00 0.05 0.03 97 993.1
20260506081556 54 75 0.0 0.0 0.00 0.05 0.03 97 993.2
20260506081043 54 75 0.0 0.0 0.00 0.05 0.03 97 993.2
20260506080553 54 75 0.0 0.0 0.00 0.05 0.03 97 993.0
20260506073041 54 75 0.0 0.0 0.00 0.05 0.03 96 993.5
20260506072551 55 75 0.0 0.0 0.00 0.05 0.03 96 993.5
20260506072100 55 75 0.0 0.0 0.00 0.05 0.03 96 993.5
20260506071529 55 74 0.0 0.0 0.00 0.05 0.03 96 993.2
20260506071028 55 75 0.0 0.0 0.00 0.05 0.03 96 993.2
20260506070540 55 75 0.0 0.0 0.00 0.05 0.03 96 993.1
20260506062036 56 74 0.0 0.0 0.02 0.05 0.03 95 993.6
20260506061539 56 75 0.0 0.0 0.02 0.05 0.03 95 993.5
20260506061025 56 75 0.0 0.0 0.02 0.05 0.03 95 993.6
20260506060537 56 75 0.0 0.0 0.02 0.05 0.03 94 993.6
20260506051039 59 1 0.0 1.0 0.01 0.03 0.01 89 993.4
20260506050522 59 46 0.0 1.0 0.01 0.03 0.01 87 993.4
20260506045047 61 46 0.0 0.0 0.01 0.03 0.01 83 993.7
20260506044525 62 307 0.0 0.0 0.01 0.03 0.01 80 993.9
20260506044037 62 301 0.0 0.0 0.00 0.02 0.00 78 994.0
20260506043528 62 76 0.0 0.0 0.00 0.02 0.00 79 993.9
20260506043027 62 278 0.0 0.0 0.00 0.02 0.00 80 993.9
20260506042537 61 276 0.0 1.0 0.00 0.02 0.00 81 993.7
20260506042026 61 127 0.0 0.0 0.00 0.02 0.00 84 993.7
20260506041527 61 74 0.0 0.0 0.00 0.02 0.00 85 993.7
20260506041038 61 311 0.0 0.0 0.00 0.02 0.00 84 993.5
20260506040549 61 306 0.0 0.0 0.00 0.02 0.00 84 993.4
20260506040051 61 306 0.0 0.0 0.00 0.02 0.02 85 993.5
20260506035559 61 306 0.0 1.0 0.00 0.02 0.02 85 993.5
20260506035043 61 306 0.0 1.0 0.00 0.02 0.02 86 993.6
20260506034551 61 99 0.0 1.0 0.00 0.02 0.02 86 993.5
20260506034059 61 98 0.0 1.0 0.00 0.02 0.02 87 993.4
20260506033548 61 99 0.0 1.0 0.00 0.02 0.02 88 993.4
20260506033055 60 75 0.0 0.0 0.00 0.02 0.02 89 993.4
20260506032543 60 75 0.0 0.0 0.00 0.02 0.02 89 993.4
20260506032047 60 75 0.0 1.0 0.00 0.02 0.02 89 993.4
20260506031556 60 74 0.0 1.0 0.00 0.02 0.02 89 993.4
20260506031043 60 74 0.0 0.0 0.00 0.02 0.02 89 993.3
20260506030521 60 74 0.0 0.0 0.00 0.02 0.02 89 993.2
20260506030029 60 74 0.0 0.0 0.00 0.02 0.02 89 993.1
20260506025539 60 74 0.0 0.0 0.00 0.02 0.02 89 993.1
20260506025020 60 74 0.0 0.0 0.00 0.02 0.02 89 993.1
20260506024530 60 108 0.0 1.0 0.00 0.02 0.02 89 993.1
20260506024040 60 108 0.0 1.0 0.00 0.02 0.02 89 993.0
20260506023522 60 108 0.0 1.0 0.00 0.02 0.02 89 992.9
20260506023029 60 50 0.0 1.0 0.00 0.02 0.02 89 992.9
20260506022538 60 50 0.0 0.0 0.00 0.02 0.02 88 992.9
20260506022038 60 50 0.0 0.0 0.00 0.02 0.02 88 992.9
20260506021528 60 50 0.0 1.0 0.00 0.02 0.02 88 993.0
20260506021038 61 49 0.0 1.0 0.00 0.02 0.02 88 992.8
20260506020537 61 48 0.0 1.0 0.00 0.02 0.02 88 992.7
20260506020044 61 48 0.0 0.0 0.00 0.02 0.02 86 992.5
20260506015548 61 48 0.0 0.0 0.00 0.02 0.02 86 992.5
20260506015057 61 49 0.0 0.0 0.00 0.02 0.02 86 992.6
20260506014545 62 49 0.0 1.0 0.00 0.02 0.02 85 992.5
20260506014053 62 49 0.0 1.0 0.00 0.02 0.02 84 992.4
20260506013602 62 49 0.0 1.0 0.00 0.02 0.02 83 992.3
20260506013048 63 49 0.0 1.0 0.00 0.02 0.02 83 992.2
20260506012552 63 55 0.0 1.0 0.00 0.02 0.02 81 992.2
20260506012100 64 54 0.0 0.0 0.00 0.02 0.02 80 992.3
20260506011548 64 55 0.0 1.0 0.00 0.02 0.02 77 992.3
20260506011020 64 55 0.0 2.0 0.00 0.02 0.02 76 992.3
20260506010523 64 129 0.0 2.0 0.00 0.02 0.02 76 992.3
20260506010032 64 131 0.0 2.0 0.00 0.02 0.02 76 992.1
20260506005521 63 218 0.0 2.0 0.00 0.02 0.02 76 991.8
20260506005022 63 249 0.0 2.0 0.00 0.02 0.02 76 991.6
20260506004532 63 233 0.0 2.0 0.00 0.02 0.02 75 991.8
20260506004043 63 233 0.0 2.0 0.00 0.02 0.02 76 991.7
20260506003526 63 98 0.0 1.0 0.00 0.02 0.02 76 991.5
20260506003036 63 121 0.0 3.0 0.00 0.02 0.02 75 991.4
20260506002545 63 237 2.0 3.0 0.00 0.02 0.02 75 991.4
20260506002026 64 217 0.0 1.0 0.00 0.02 0.02 74 991.4
20260506001537 64 214 0.0 1.0 0.00 0.02 0.02 72 991.4
20260506001043 65 214 0.0 1.0 0.00 0.02 0.02 71 991.4
20260506000525 66 214 0.0 1.0 0.00 0.02 0.02 70 991.4
20260506000031 67 214 0.0 1.0 0.00 0.02 0.02 68 991.3
20260505235532 67 225 0.0 3.0 0.00 0.02 0.02 66 991.3
20260505235022 67 243 0.0 7.0 0.00 0.02 0.02 65 991.2
20260505234532 67 207 2.0 7.0 0.00 0.02 0.02 65 991.1
20260505234031 67 191 1.0 2.0 0.00 0.02 0.02 65 991.0
20260505233522 68 210 0.0 2.0 0.00 0.02 0.02 64 990.9
20260505233030 68 252 0.0 1.0 0.00 0.02 0.02 64 990.8
20260505232531 68 131 0.0 1.0 0.00 0.02 0.02 64 990.8
20260505232020 68 131 0.0 4.0 0.00 0.02 0.02 64 990.7
20260505231521 68 285 1.0 5.0 0.00 0.02 0.02 63 990.6
20260505231031 68 255 0.0 4.0 0.00 0.02 0.02 63 990.6
20260505230522 68 241 1.0 8.0 0.00 0.02 0.02 63 990.6
20260505230022 68 281 2.0 8.0 0.00 0.02 0.02 63 990.7
20260505225533 68 144 1.0 4.0 0.00 0.02 0.02 63 990.7
20260505225042 68 37 2.0 7.0 0.00 0.02 0.02 64 990.8
20260505224522 68 231 2.0 10.0 0.00 0.02 0.02 64 990.7
20260505224032 68 244 3.0 14.0 0.00 0.02 0.02 63 990.6
20260505223539 68 181 3.0 17.0 0.00 0.02 0.02 64 990.7
20260505223039 68 311 4.0 17.0 0.00 0.02 0.02 64 990.6
20260505222528 69 200 3.0 14.0 0.00 0.02 0.02 63 990.6
20260505222038 69 310 4.0 14.0 0.00 0.02 0.02 61 990.6
20260505221538 69 107 3.0 9.0 0.00 0.02 0.02 60 990.1
20260505221028 69 237 2.0 10.0 0.00 0.02 0.02 61 990.0
20260505220540 68 122 3.0 10.0 0.00 0.02 0.02 62 989.9
20260505220038 68 202 4.0 12.0 0.00 0.02 0.02 62 989.8
20260505215529 68 248 3.0 12.0 0.00 0.02 0.02 62 989.9
20260505215030 68 69 3.0 10.0 0.00 0.02 0.02 64 989.9
20260505214520 67 228 2.0 13.0 0.00 0.02 0.02 65 989.7
20260505214031 67 254 5.0 14.0 0.00 0.02 0.02 66 989.8
20260505213533 67 222 3.0 14.0 0.00 0.02 0.02 67 989.6
20260505213021 68 94 1.0 11.0 0.00 0.02 0.02 67 989.6
20260505212522 68 328 2.0 10.0 0.00 0.02 0.02 67 990.1
20260505212033 68 255 3.0 13.0 0.00 0.02 0.02 66 990.1
20260505211522 69 250 3.0 13.0 0.00 0.02 0.02 66 990.7
20260505211023 69 131 2.0 13.0 0.00 0.02 0.02 65 990.6
20260505210534 70 39 4.0 11.0 0.00 0.02 0.02 64 990.4
20260505210021 71 304 2.0 12.0 0.00 0.02 0.02 62 990.2
20260505205547 72 229 4.0 12.0 0.00 0.02 0.02 60 990.1
20260505205029 72 250 4.0 7.0 0.00 0.02 0.02 58 990.0
20260505204558 73 136 2.0 5.0 0.00 0.02 0.02 60 989.7
20260505204046 73 274 1.0 5.0 0.01 0.02 0.02 61 989.2
20260505203555 73 278 1.0 4.0 0.01 0.02 0.02 64 989.0
20260505203041 72 191 2.0 4.0 0.02 0.02 0.02 66 989.0
20260505202549 70 343 1.0 4.0 0.02 0.02 0.02 67 989.0
20260505202057 69 247 0.0 2.0 0.02 0.02 0.02 76 988.9
20260505201545 67 266 0.0 2.0 0.02 0.02 0.02 75 988.9
20260505201048 66 96 0.0 2.0 0.02 0.02 0.02 78 988.9
20260505200601 65 125 0.0 4.0 0.02 0.02 0.02 76 988.8
20260505200047 66 61 1.0 5.0 0.02 0.02 0.02 75 989.1
20260505195555 66 300 1.0 11.0 0.02 0.02 0.02 75 989.9
20260505195043 66 304 3.0 12.0 0.02 0.02 0.02 74 990.3
20260505194528 67 227 4.0 12.0 0.02 0.02 0.02 74 990.4
20260505194039 68 197 4.0 11.0 0.01 0.01 0.01 69 990.4
20260505193528 69 214 4.0 11.0 0.01 0.01 0.01 65 990.2
20260505193024 70 97 2.0 10.0 0.00 0.00 0.00 61 990.0
20260505192535 71 153 2.0 14.0 0.00 0.00 0.00 59 989.3
20260505192044 73 272 4.0 19.0 0.00 0.00 0.00 57 989.5
20260505191525 76 262 5.0 19.0 0.00 0.00 0.00 49 989.5
20260505191034 79 104 4.0 14.0 0.00 0.00 0.00 40 988.3
20260505190526 79 293 4.0 9.0 0.00 0.00 0.00 37 987.8
20260505190034 79 279 2.0 8.0 0.00 0.00 0.00 39 987.5
20260505185543 79 232 3.0 8.0 0.00 0.00 0.00 42 987.5
20260505185022 78 223 2.0 9.0 0.00 0.00 0.00 42 987.4
20260505184530 79 246 1.0 9.0 0.00 0.00 0.00 45 987.5
20260505184020 79 338 2.0 7.0 0.00 0.00 0.00 45 987.4
20260505183531 79 227 1.0 12.0 0.00 0.00 0.00 45 987.4
20260505183031 79 148 2.0 12.0 0.00 0.00 0.00 44 987.4
20260505182520 79 309 1.0 8.0 0.00 0.00 0.00 44 987.5
20260505182046 80 135 2.0 10.0 0.00 0.00 0.00 42 987.6
20260505181527 81 155 1.0 9.0 0.00 0.00 0.00 41 987.6
20260505181038 82 261 2.0 9.0 0.00 0.00 0.00 43 987.5
20260505180550 81 218 2.0 9.0 0.00 0.00 0.00 45 987.5
20260505180029 81 260 1.0 9.0 0.00 0.00 0.00 41 987.7
20260505175539 82 261 2.0 7.0 0.00 0.00 0.00 42 987.8
20260505175048 81 212 2.0 5.0 0.00 0.00 0.00 43 987.9
20260505174534 81 44 1.0 7.0 0.00 0.00 0.00 43 988.1
20260505174031 81 238 2.0 9.0 0.00 0.00 0.00 41 988.1
20260505173522 82 307 2.0 10.0 0.00 0.00 0.00 40 988.3
20260505173032 81 88 2.0 14.0 0.00 0.00 0.00 41 988.4
20260505172534 82 223 4.0 14.0 0.00 0.00 0.00 40 988.3
20260505172023 83 214 4.0 12.0 0.00 0.00 0.00 39 988.3
20260505171524 82 320 1.0 8.0 0.00 0.00 0.00 45 988.4
20260505171035 82 226 3.0 12.0 0.00 0.00 0.00 41 988.6
20260505170527 81 248 3.0 12.0 0.00 0.00 0.00 42 988.6
20260505170022 81 235 4.0 12.0 0.00 0.00 0.00 43 988.6
20260505165533 81 229 1.0 16.0 0.00 0.00 0.00 42 988.8
20260505165024 82 338 4.0 16.0 0.00 0.00 0.00 40 988.8
20260505164524 82 229 3.0 15.0 0.00 0.00 0.00 41 989.0
20260505164035 82 270 2.0 9.0 0.00 0.00 0.00 43 989.1
20260505163547 82 139 3.0 12.0 0.00 0.00 0.00 44 989.2
20260505163054 81 299 3.0 12.0 0.00 0.00 0.00 43 989.2
20260505162605 81 24 2.0 9.0 0.00 0.00 0.00 45 989.3
20260505162043 80 240 2.0 7.0 0.00 0.00 0.00 46 989.5
20260505161603 80 255 2.0 12.0 0.00 0.00 0.00 43 989.5
20260505161041 80 221 3.0 12.0 0.00 0.00 0.00 44 989.7
20260505160548 79 189 2.0 8.0 0.00 0.00 0.00 45 989.8
20260505153024 75 241 3.0 7.0 0.00 0.00 0.00 51 990.6
20260505152525 75 353 2.0 7.0 0.00 0.00 0.00 54 990.7
20260505152035 74 233 1.0 8.0 0.00 0.00 0.00 54 990.6
20260505151525 73 209 4.0 11.0 0.00 0.00 0.00 53 990.8
20260505151022 73 288 1.0 11.0 0.00 0.00 0.00 55 990.9
20260505150534 72 115 3.0 11.0 0.00 0.00 0.00 53 990.7
20260505140556 65 290 1.0 6.0 0.00 0.00 0.00 64 992.1
20260505124528 62 98 2.0 9.0 0.00 0.00 0.00 68 992.0
20260505124039 61 139 3.0 9.0 0.00 0.00 0.00 68 992.0
20260505123548 61 212 1.0 11.0 0.00 0.00 0.00 69 991.9
20260505123027 61 209 3.0 8.0 0.00 0.00 0.00 69 991.9
20260505122538 61 217 2.0 8.0 0.00 0.00 0.00 70 991.9
20260505122046 60 107 1.0 8.0 0.00 0.00 0.00 71 991.9